Back to catalog

MIDAS 4 DEB

LostPO
NORAD 45467·DEBRIS·🇺🇸 United States

Launched Oct 21, 1961 from Vandenberg Space Force Base

Loading…

Next Passes (next 24 hours)

TLE

StaleSource: Space-Track

Epoch: Apr 19, 2025, 15:11 UTC

1 45467U 61028M   25109.63283500 -.00000113  00000-0 -32453-1 0  9992
2 45467  95.8328 190.3350 0905562 151.7473 213.5700  8.70606683304323

Track MIDAS 4 DEB in real time with AllMySat

Download on the App Store